Погода в Горячинске

Поиск расширенной информации на нашем сайте:

Полезная информация:

Новости сайта



02.01.2020
Опубликован Долгосрочный прогноз погоды по городам России и ближнего зарубежья на январь 2020 года.
Карты: Прогноз на январь и февраль 2020 года, Сравнение прогнозируемой аномалии приземной температуры воздуха на январь 2020 года по разным моделям.




Погода в Горячинске - сегодня

Время (UTC), дата Ветер
(°,м/с) 
Видим.   Явления Облачность Т
(°С)
Тd
(°С)
f(%) Тe
(°С)
Pmin
(гПа)
dP
(гПа)
Po
(мм)
O2
(г/м3)
Тmin Tmax R s Состояние
почвы
18 23.11.20 310 (СЗ) 5-10{10}  н/о    10/4 1000 м средняя, верхняя 
[Sc|Ac lent|Ci sp]
-0 -6.1 63 -3  1027.1  1.3  725  293           
00 24.11.20 320 (СЗ) 5-10{14}  н/о    9/8 1000 м верхняя 
[Sc|Ci sp]
-2.4 -8.6 62 -6  1030.3  1.2  727  296  -2.5      10  равномерный
мокрый или
старый снег
100% 
03 24.11.20 320 (СЗ) 4{12}  20000 м    5/3 1000 м верхняя 
[Sc|Ci sp]
-3.1 -9.6 61 -6  1032  1.2  728  298  -3.1         
06 24.11.20 320 (СЗ) 20000 м    8/5 1000 м средняя 
[Sc|Ac cast]
-1.6 -10 53 -4  1031.6  728  296           
09 24.11.20 320 (СЗ) 5-10{12}  н/о  {ливн. осадки}  10/8 1000 м кучево-дожд., средняя, верхняя 
[Cb cap|Ac lent|Ci sp]
-2.7 -9.9 58 -6  1033.1  1.1  729  297           
12 24.11.20 340 (С) 3{10}  н/о  слаб. ливневой снег  10/10 600 м кучево-дожд. 
[Cb cap]
-2.7 -10.7 54 -5  1034.3  1.1  730  298    -1.6  0.0     
15 24.11.20 090 (В) н/о  {ливн. осадки}  10/10 600 м кучево-дожд. 
[Cb cap]
-4.8 -9 72 -4  1036.2  1.4  731  301           
18 24.11.20 110 (В) н/о  {ливн. осадки}  10/10 600 м кучево-дожд. 
[Cb cap]
-5.5 -9.8 72 -5  1037.6  1.1  731  302           
21 24.11.20 070 (В) н/о  слаб. ливневой снег  10/10 600 м кучево-дожд. 
[Cb cap]
-6.1 -8.9 81 -6  1038.1  0.4  732  302           
00 25.11.20 110 (В) н/о  слаб. ливневой снег  10/10 600 м кучево-дожд. 
[Cb cap]
-6.1 -8.9 81 -6  1038.8  0.6  732  303  -6.4    11  равномерный
сухой снег
100% 
03 25.11.20 070 (В) 20000 м  {ливн. осадки}  10/10 1000 м кучево-дожд. 
[Cb cap]
-5.2 -9.7 71 -7  1039.5  0.9  733  302           
06 25.11.20 190 (Ю) 20000 м  {ливн. осадки}  10/10 1000 м 
[Sc]
-4 -11.4 56 -4  1039.1  0.1  733  301           
09 25.11.20 060 (СВ) н/о    10/8 1000 м средняя 
[Sc|Ac lent]
-6.1 -10.6 70 -8  1040  0.4  733  303           
12 25.11.20 120 (ЮВ) н/о    4/3 1000 м средняя 
[Sc|Ac lent]
-10.1 -12.2 85 -10  1041.7  0.6  734  308    -3.9       
15 25.11.20 070 (В) н/о    3/3 1000 м 
[Sc]
-11.1 -13.4 83 -11  1042.1  0.2  734  309           
18 25.11.20 090 (В) н/о    3/3 1000 м 
[Sc]
-12.9 -15.1 84 -13  1042.5  0.1  734  312           
21 25.11.20 080 (В) н/о    3/3 1000 м средняя 
[Sc|Ac lent]
-13.2 -16 79 -15  1042.1  -0.4  733  312           
00 26.11.20 090 (В) н/о    8/5 1000 м средняя, верхняя 
[Sc|Ac cast|Ci sp]
-12.9 -15.4 81 -15  1042.5  0.4  734  312  -13.7      11  равномерный
сухой снег
100% 
03 26.11.20 060 (СВ) 10 км  слаб. ливневой снег  10/8 600 м кучево-дожд., средняя, верхняя 
[Cb cap|Ac cast|Ci sp]
-8.1 -12.6 70 -8  1042.2  0.9  734  306           
06 26.11.20 180 (Ю) 20000 м  {ливн. осадки}  4/1 1000 м верхняя 
[Sc|Cc]
-3.2 -11.9 51 -3  1040.7  -0.3  734  300           
09 26.11.20 150 (ЮВ) н/о    6/3 1000 м средняя, верхняя 
[Sc|Ac lent|Ci sp]
-7.1 -12.4 66 -9  1042.2  0.5  734  305           
12 26.11.20 170 (Ю) н/о    8/6 1000 м средняя, верхняя 
[Sc|Ac lent|Ci sp]
-6.3 -10.2 74 -9  1042.6  0.6  735  304    -2.8  0.3     
15 26.11.20 170 (Ю) н/о    6/6 1000 м 
[Sc]
-6.7 -9.9 78 -10  1042.7  735  305           
18 26.11.20 170 (Ю) н/о    8/8 1000 м 
[Sc]
-6.5 -9.4 80 -9  1042.9  735  304           
21 26.11.20 170 (Ю) н/о  ливневой снег  10/10 600 м кучево-дожд. 
[Cb cap]
-6.5 -9.7 78 -9  1042.7  -0.3  735  304           
Время (UTC), дата Ветер
(°,м/с) 
Видим.   Явления Облачность Т
(°С)
Тd
(°С)
f(%) Тe
(°С)
Pmin
(гПа)
dP
(гПа)
Po
(мм)
O2
(г/м3)
Тmin Tmax R s Состояние
почвы

Для получения пояснительной информации подведите курсор к названию столбца.

ПОГОДА в Горячинске - архив

Всё, что Вы хотите узнать о погоде в Горячинске - удобно и подробно!

Выберите нужную дату (начиная с 1 января 2019* года) и нажмите кнопку "Найти".
Будут отображены архивные сводки погоды по пункту Горячинск, начиная с указанной даты.


Отображать данные в формате CSV (для использования в таблицах Excel)


Внимание! Наш архив погоды предназначен исключительно для личного некоммерческого использования в познавательных целях. Если Вам необходимы официальные справки о состоянии погоды (для производственных, юридических, коммерческих и т.п. целей), обращайтесь в органы Росгидромета.

*Примечание: данная дата относится к архиву по метеостанциям СССР (Россия, СНГ, Балтия).
Архив по метеостанциям Зарубежной Европы и Азии (кроме Китая) хранится 10 дней, по другим регионам земного шара (Китай, Африка, Америка, Австралия, Океания) - 1 день.

Горячинск - район местоположения метеостанции


Название, широта, долгота, высота метеостанции:
Горячинск 53°ш. 108.3°д. 487 м над ур. моря [Российская Федерация]

Дополнительная информация

В oтличие oт бoльшинства пoгoдных сайтoв мы публикуем пoдрoбную метеoинфoрмацию в детальнoм прoфессиoнальнoм фoрмате.

Характеристики температуры и влажнoсти вoздуха измеряются на высoте 2 м в тени вдали oт зданий и деревьев.
Скoрoсть ветра измеряется на высoте 10 м (на урoвне рoста челoвека скoрoсть ветра ниже в 1.5-2 раза). Если метеoстанция нахoдится в гoрoде или в лесу, тo скoрoсть ветра занижена на 2-4 м/с пo сравнению с oткрытым местoм. Скoрoсть ветра над акватoриями крупных рек и oзёр, а также на вершинах хoлмoв на 2-5 м/с выше, чем в oбычных услoвиях.
Атмoсфернoе давление в разных тoчках местнoсти мoжет значительнo oтличаться oт давления на метеoстанции, в зависимoсти oт услoвий рельефа (при пoдъёме на 10 м давление пoнижается примернo на 1 мм рт.ст.).